Location: Melara
(45.0500°N, 11.1833°E)
Time: 22:51:38
(UTC+00:00)

Cosmos 1408 - Pass Details

Date: 26 May 2022
Orbit: 447 x 484 km, 82.6° (Epoch: 02 July)

Event Time Altitude Azimuth Distance (km) Brightness Sun altitude
Exits shadow 02:17:34 - 165° (SSE) 2,368 5.7 -11.6°
Reaches altitude 10° 02:19:21 10° 157° (SSE) 1,662 5.0 -11.3°
Maximum altitude 02:22:39 34° 92° (E) 822 4.2 -10.9°
Drops below altitude 10° 02:25:58 10° 27° (NNE) 1,663 6.6 -10.5°
Sets 02:28:11 0° 18° (NNE) 2,542 7.4 -10.2°
